| time (UTC) | temp F | wind direction | speed MPH | gust MPH | rain 1hr in | rain 24hr in | rain mn in | humidity % | barometer mb |
| 20260506184906 | 49 | 135 | 2.0 | 0.0 | 0.00 | 0.00 | 0.00 | 10 | 1009.3 |
| 20260506183839 | 49 | 180 | 2.0 | 0.0 | 0.00 | 0.00 | 0.00 | 10 | 1009.1 |
| 20260506182812 | 49 | 90 | 0.0 | 0.0 | 0.00 | 0.00 | 0.00 | 10 | 1009.0 |
| 20260506181744 | 49 | 315 | 2.0 | 0.0 | 0.00 | 0.00 | 0.00 | 10 | 1009.0 |
| 20260506180716 | 49 | 225 | 1.0 | 0.0 | 0.00 | 0.00 | 0.00 | 10 | 1008.9 |
| 20260506175649 | 50 | 135 | 3.0 | 0.0 | 0.01 | 0.00 | 0.00 | 10 | 1008.9 |
| 20260506174621 | 50 | 135 | 3.0 | 0.0 | 0.01 | 0.00 | 0.00 | 10 | 1008.8 |
| 20260506173554 | 50 | 135 | 3.0 | 0.0 | 0.01 | 0.00 | 0.00 | 10 | 1008.8 |
| 20260506172526 | 50 | 225 | 0.0 | 0.0 | 0.00 | 0.00 | 0.00 | 10 | 1008.7 |
| 20260506171459 | 50 | 315 | 0.0 | 0.0 | 0.00 | 0.00 | 0.00 | 10 | 1008.7 |
| 20260506170431 | 50 | 45 | 4.0 | 0.0 | 0.00 | 0.00 | 0.00 | 10 | 1008.6 |
| 20260506165404 | 50 | 135 | 2.0 | 0.0 | 0.00 | 0.00 | 0.00 | 10 | 1008.6 |
| 20260506164336 | 51 | 315 | 1.0 | 0.0 | 0.00 | 0.00 | 0.00 | 10 | 1008.4 |
| 20260506163309 | 51 | 135 | 1.0 | 0.0 | 0.00 | 0.00 | 0.00 | 10 | 1008.4 |
| 20260506162241 | 51 | 180 | 5.0 | 0.0 | 0.00 | 0.00 | 0.00 | 10 | 1008.4 |
| 20260506161214 | 51 | 135 | 0.0 | 0.0 | 0.00 | 0.00 | 0.00 | 10 | 1008.4 |
| 20260506160146 | 51 | 270 | 1.0 | 0.0 | 0.00 | 0.00 | 0.00 | 10 | 1008.3 |
| 20260506155118 | 51 | 135 | 2.0 | 0.0 | 0.00 | 0.00 | 0.00 | 10 | 1008.4 |
| 20260506154051 | 51 | 0.0 | 0.0 | 0.00 | 0.00 | 0.00 | 10 | 1008.4 | |
| 20260506153023 | 51 | 90 | 6.0 | 0.0 | 0.00 | 0.00 | 0.00 | 10 | 1008.3 |
| 20260506150928 | 52 | 90 | 2.0 | 0.0 | 0.00 | 0.00 | 0.00 | 10 | 1008.3 |
| 20260506145901 | 52 | 135 | 5.0 | 0.0 | 0.00 | 0.00 | 0.00 | 10 | 1008.2 |
| 20260506144833 | 52 | 135 | 1.0 | 0.0 | 0.00 | 0.00 | 0.00 | 10 | 1008.3 |
| 20260506142738 | 52 | 315 | 2.0 | 0.0 | 0.00 | 0.00 | 0.00 | 10 | 1008.2 |
| 20260506141711 | 52 | 315 | 0.0 | 0.0 | 0.00 | 0.00 | 0.00 | 10 | 1008.1 |
| 20260506140643 | 52 | 315 | 1.0 | 0.0 | 0.00 | 0.00 | 0.00 | 10 | 1008.2 |
| 20260506135616 | 52 | 6.0 | 0.0 | 0.00 | 0.00 | 0.00 | 10 | 1008.2 | |
| 20260506134548 | 52 | 135 | 3.0 | 0.0 | 0.00 | 0.00 | 0.00 | 10 | 1008.3 |
| 20260506133521 | 52 | 135 | 0.0 | 0.0 | 0.00 | 0.00 | 0.00 | 10 | 1008.2 |
| 20260506132453 | 52 | 45 | 5.0 | 0.0 | 0.00 | 0.00 | 0.00 | 10 | 1008.2 |
| 20260506131425 | 52 | 90 | 0.0 | 0.0 | 0.00 | 0.00 | 0.00 | 10 | 1008.2 |
| 20260506130358 | 51 | 315 | 4.0 | 0.0 | 0.00 | 0.00 | 0.00 | 10 | 1008.2 |
| 20260506123235 | 52 | 90 | 0.0 | 0.0 | 0.00 | 0.00 | 0.00 | 10 | 1008.1 |
| 20260506122208 | 51 | 270 | 0.0 | 0.0 | 0.00 | 0.00 | 0.00 | 10 | 1008.0 |
| 20260506121140 | 52 | 315 | 0.0 | 0.0 | 0.00 | 0.00 | 0.00 | 10 | 1007.9 |
| 20260506115045 | 52 | 270 | 2.0 | 0.0 | 0.00 | 0.00 | 0.00 | 10 | 1007.9 |
| 20260506114018 | 51 | 90 | 4.0 | 0.0 | 0.00 | 0.00 | 0.00 | 10 | 1007.9 |
| 20260506112950 | 51 | 135 | 3.0 | 0.0 | 0.00 | 0.00 | 0.00 | 10 | 1007.9 |
| 20260506111923 | 51 | 135 | 5.0 | 0.0 | 0.00 | 0.00 | 0.00 | 10 | 1007.9 |
| 20260506110855 | 52 | 135 | 0.0 | 0.0 | 0.00 | 0.00 | 0.00 | 10 | 1007.9 |
| 20260506105827 | 51 | 315 | 8.0 | 0.0 | 0.00 | 0.00 | 0.00 | 10 | 1007.9 |
| 20260506104800 | 50 | 135 | 0.0 | 0.0 | 0.00 | 0.00 | 0.00 | 10 | 1008.0 |
| 20260506103732 | 51 | 1.0 | 0.0 | 0.01 | 0.00 | 0.00 | 10 | 1007.9 | |
| 20260506102705 | 51 | 90 | 0.0 | 0.0 | 0.01 | 0.00 | 0.00 | 10 | 1007.9 |
| 20260506101637 | 51 | 315 | 1.0 | 0.0 | 0.00 | 0.00 | 0.00 | 10 | 1007.7 |
| 20260506100610 | 51 | 270 | 0.0 | 0.0 | 0.00 | 0.00 | 0.00 | 10 | 1007.7 |
| 20260506095542 | 51 | 315 | 0.0 | 0.0 | 0.00 | 0.00 | 0.00 | 10 | 1007.7 |
| 20260506094515 | 50 | 315 | 0.0 | 0.0 | 0.00 | 0.00 | 0.00 | 10 | 1007.7 |
| 20260506092420 | 51 | 45 | 0.0 | 0.0 | 0.04 | 0.00 | 0.00 | 10 | 1007.5 |
| 20260506091352 | 51 | 270 | 4.0 | 0.0 | 0.03 | 0.00 | 0.00 | 10 | 1007.5 |
| 20260506090325 | 50 | 135 | 0.0 | 0.0 | 0.02 | 0.00 | 0.00 | 10 | 1007.5 |
| 20260506085257 | 50 | 0 | 1.0 | 0.0 | 0.01 | 0.00 | 0.00 | 10 | 1007.4 |
| 20260506084229 | 50 | 135 | 7.0 | 0.0 | 0.00 | 0.00 | 0.00 | 10 | 1007.4 |
| 20260506082134 | 51 | 315 | 0.0 | 0.0 | 0.00 | 0.00 | 0.00 | 10 | 1007.2 |
| 20260506081107 | 50 | 270 | 2.0 | 0.0 | 0.00 | 0.00 | 0.00 | 10 | 1007.2 |
| 20260506071849 | 50 | 180 | 1.0 | 0.0 | 0.02 | 0.00 | 0.00 | 10 | 1007.0 |
| 20260506070822 | 50 | 0 | 0.0 | 0.0 | 0.01 | 0.00 | 0.00 | 10 | 1007.1 |
| 20260506061604 | 51 | 180 | 0.0 | 0.0 | 0.02 | 0.00 | 0.00 | 10 | 1006.8 |
| 20260506060537 | 51 | 225 | 0.0 | 0.0 | 0.01 | 0.00 | 0.00 | 10 | 1006.7 |
| 20260506051319 | 51 | 0 | 0.0 | 0.0 | 0.03 | 0.00 | 0.00 | 10 | 1006.7 |
| 20260506044156 | 51 | 135 | 0.0 | 0.0 | 0.01 | 0.00 | 0.00 | 10 | 1006.7 |
| 20260506043129 | 51 | 315 | 0.0 | 0.0 | 0.00 | 0.00 | 0.00 | 10 | 1006.8 |
| 20260506042101 | 51 | 315 | 0.0 | 0.0 | 0.05 | 0.00 | 0.00 | 10 | 1006.8 |
| 20260506041034 | 51 | 90 | 7.0 | 0.0 | 0.05 | 0.00 | 0.00 | 10 | 1006.8 |
| 20260506040006 | 51 | 135 | 3.0 | 0.0 | 0.04 | 0.00 | 0.00 | 10 | 1007.0 |
| 20260506034939 | 51 | 135 | 3.0 | 0.0 | 0.03 | 0.00 | 0.00 | 10 | 1007.0 |
| 20260506033911 | 51 | 135 | 0.0 | 0.0 | 0.02 | 0.00 | 0.00 | 10 | 1007.1 |
| 20260506032844 | 51 | 315 | 0.0 | 0.0 | 0.01 | 0.00 | 0.00 | 10 | 1007.1 |
| 20260506031816 | 51 | 45 | 0.0 | 0.0 | 0.10 | 0.00 | 0.00 | 10 | 1007.2 |
| 20260506030749 | 51 | 135 | 0.0 | 0.0 | 0.08 | 0.00 | 0.00 | 10 | 1007.3 |
| 20260506024654 | 52 | 180 | 0.0 | 0.0 | 0.05 | 0.00 | 0.00 | 10 | 1007.5 |
| 20260506023627 | 51 | 315 | 0.0 | 0.0 | 0.04 | 0.00 | 0.00 | 10 | 1007.5 |
| 20260506022559 | 52 | 0 | 0.0 | 0.0 | 0.02 | 0.00 | 0.00 | 10 | 1007.6 |
| 20260506021532 | 52 | 0 | 0.0 | 0.0 | 0.04 | 0.00 | 0.00 | 10 | 1007.7 |
| 20260506014410 | 52 | 135 | 1.0 | 0.0 | 0.01 | 0.00 | 0.00 | 10 | 1007.8 |
| 20260506013343 | 52 | 135 | 0.0 | 0.0 | 0.01 | 0.00 | 0.00 | 10 | 1007.8 |
| 20260506012315 | 52 | 315 | 0.0 | 0.0 | 0.00 | 0.00 | 0.00 | 10 | 1007.8 |
| 20260506010220 | 52 | 315 | 7.0 | 0.0 | 0.05 | 0.00 | 0.00 | 10 | 1008.0 |
| 20260506005153 | 52 | 315 | 0.0 | 0.0 | 0.04 | 0.00 | 0.00 | 10 | 1008.0 |
| 20260506003058 | 52 | 315 | 0.0 | 0.0 | 0.02 | 0.00 | 0.00 | 10 | 1008.2 |
| 20260506001004 | 52 | 315 | 1.0 | 0.0 | 0.07 | 0.00 | 0.00 | 10 | 1008.3 |
| 20260505235936 | 52 | 90 | 5.0 | 0.0 | 0.05 | 0.00 | 0.00 | 10 | 1008.5 |
| 20260505234909 | 52 | 135 | 0.0 | 0.0 | 0.04 | 0.00 | 0.00 | 10 | 1008.6 |
| 20260505233842 | 52 | 315 | 0.0 | 0.0 | 0.03 | 0.00 | 0.00 | 10 | 1008.6 |
| 20260505231747 | 52 | 135 | 0.0 | 0.0 | 0.01 | 0.00 | 0.00 | 10 | 1008.7 |
| 20260505230719 | 52 | 315 | 0.0 | 0.0 | 0.05 | 0.00 | 0.00 | 10 | 1008.7 |
| 20260505225652 | 52 | 315 | 2.0 | 0.0 | 0.04 | 0.00 | 0.00 | 10 | 1008.8 |
| 20260505224625 | 52 | 135 | 1.0 | 0.0 | 0.03 | 0.00 | 0.00 | 10 | 1008.9 |
| 20260505223557 | 53 | 0.0 | 0.0 | 0.02 | 0.00 | 0.00 | 10 | 1008.8 | |
| 20260505222530 | 53 | 225 | 0.0 | 0.0 | 0.01 | 0.00 | 0.00 | 10 | 1008.9 |
| 20260505221503 | 53 | 315 | 0.0 | 0.0 | 0.01 | 0.00 | 0.00 | 10 | 1008.9 |
| 20260505213313 | 53 | 0.0 | 0.0 | 0.01 | 0.00 | 0.00 | 10 | 1009.2 | |
| 20260505212246 | 53 | 315 | 4.0 | 0.0 | 0.01 | 0.00 | 0.00 | 10 | 1009.3 |